Home   Weather   Skopje   Past weeks
Flag for North Macedonia

Past Weather in Skopje, North Macedonia — Yesterday and Last 2 Weeks

Now
68 °F

Sunny.


Feels Like: 68 °F
Forecast: 73 / 38 °F
Wind: No wind

Location: Skopje-Petrovec

Current Time: Apr 9, 2020 at 7:40:27 pm

Latest Report: Apr 9, 2020 at 7:00 pm


Visibility: 10 mi

Pressure: 30.04 "Hg

Humidity: 28%

Dew Point: 34 °F

Location of SkopjeLocation

Past Weather in Skopje — Graph

°F

Skopje Temperature Yesterday

Maximum temperature yesterday: 68 °F (at 4:30 pm)
Minimum temperature yesterday: 32 °F (at 4:00 am)
Average temperature yesterday: 50 °F

High & Low Weather Summary for the Past Weeks

 TemperatureHumidityPressure
High72 °F (Apr 9, 4:00 pm)100% (Mar 27, 12:00 am)30.45 "Hg (Mar 27, 12:00 am)
Low25 °F (Apr 3, 4:00 am)15% (Apr 7, 2:00 pm)29.83 "Hg (Mar 29, 2:00 pm)
Average45 °F71%30.07 "Hg
* Reported Mar 25 5:00 pm — Apr 9 6:30 pm, Skopje. Weather by CustomWeather, © 2020

Note: Actual official high and low records may vary slightly from our data, if they occured in-between our weather recording intervals... More about our weather records

Skopje Weather History for the Previous 24 Hours

Scroll right to see more
 ConditionsComfort  
Time TempWeatherWind HumidityBarometerVisibility
6:30 pm
Thu, Apr 9
72 °FSunny.No wind20%30.04 "Hg10 mi
6:00 pm72 °FSunny.No wind23%30.04 "Hg10 mi
5:30 pm72 °FSunny.2 mph20%30.04 "Hg10 mi
5:00 pm72 °FSunny.2 mph20%30.07 "Hg10 mi
4:30 pm72 °FSunny.2 mph20%30.07 "Hg10 mi
4:00 pm72 °FSunny.3 mph20%30.07 "Hg10 mi
3:30 pm70 °FSunny.No wind25%30.09 "Hg10 mi
3:00 pm68 °FSunny.No wind26%30.09 "Hg10 mi
2:00 pm66 °FSunny.No wind26%30.12 "Hg10 mi
1:30 pm66 °FSunny.No wind28%30.12 "Hg10 mi
1:00 pm66 °FSunny.No wind28%30.15 "Hg10 mi
12:30 pm64 °FSunny.No wind30%30.15 "Hg10 mi
11:30 am63 °FSunny.No wind32%30.18 "Hg10 mi
11:00 am59 °FSunny.No wind36%30.21 "Hg10 mi
10:30 am57 °FSunny.No wind39%30.21 "Hg10 mi
10:00 am54 °FSunny.No wind51%30.21 "Hg10 mi
9:30 am52 °FSunny.No wind50%30.21 "Hg10 mi
9:00 am46 °FSunny.No wind62%30.21 "Hg10 mi
8:00 am41 °FSunny.No wind70%30.21 "Hg10 mi
7:30 am37 °FSunny.No wind75%30.21 "Hg10 mi
7:00 am36 °FSunny.1 mph75%30.21 "Hg10 mi
6:30 am34 °FSunny.2 mph81%30.21 "Hg10 mi
6:00 am32 °FClear.5 mph80%30.21 "Hg10 mi
5:30 am34 °FClear.1 mph81%30.21 "Hg10 mi
5:00 am34 °FClear.No wind81%30.21 "Hg10 mi
4:30 am34 °FClear.2 mph81%30.21 "Hg10 mi
4:00 am36 °FClear.2 mph75%30.21 "Hg10 mi
3:30 am36 °FClear.1 mph75%30.21 "Hg10 mi
3:00 am36 °FClear.No wind75%30.21 "Hg10 mi
2:00 am39 °FClear.1 mph70%30.21 "Hg10 mi
1:30 am41 °FClear.1 mph66%30.21 "Hg10 mi
1:00 am41 °FClear.1 mph66%30.21 "Hg10 mi
12:30 am39 °FClear.2 mph70%30.21 "Hg10 mi
12:00 am43 °FClear.2 mph61%30.21 "Hg10 mi
11:30 pm
Wed, Apr 8
46 °FClear.1 mph50%30.21 "Hg10 mi
11:00 pm46 °FClear.1 mph50%30.21 "Hg10 mi
10:30 pm48 °FClear.8 mph46%30.21 "Hg10 mi
10:00 pm48 °FClear.3 mph46%30.21 "Hg10 mi
9:30 pm54 °FClear.6 mph38%30.21 "Hg10 mi
9:00 pm52 °FClear.7 mph41%30.21 "Hg10 mi
8:30 pm52 °FClear.8 mph44%30.18 "Hg10 mi
8:00 pm54 °FClear.9 mph41%30.18 "Hg10 mi
7:30 pm59 °FClear.7 mph31%30.15 "Hg10 mi
7:00 pm57 °FSunny.7 mph41%30.15 "Hg10 mi
Weather by CustomWeather, © 2020

See weather overview

Advertising